Location: Luxembourg
(49.6117°N, 6.1300°E)
Time: 14:51:15
(UTC+01:00)

First-Move - Visible Passes

Search period start: 14 February 2026 00:00
Search period end: 24 February 2026 00:00
Orbit: 301 x 321 km, 97.7° (Epoch: 13 February)

Date Brightness Start Highest point End Pass type
(mag) Time Alt. Az. Time Alt. Az. Time Alt. Az.
14 Feb ? 06:07:37 10° NNE 06:10:07 61° ESE 06:12:35 10° S visible
15 Feb ? 06:19:30 10° NNE 06:22:01 82° WNW 06:24:31 10° SSW visible
16 Feb ? 06:30:19 10° N 06:32:47 53° WNW 06:35:13 10° SSW visible
17 Feb ? 06:40:03 10° N 06:42:26 37° WNW 06:44:47 10° SW visible
18 Feb ? 05:20:30 10° ENE 05:21:09 11° E 05:21:49 10° ESE visible
18 Feb ? 06:48:43 10° N 06:50:57 28° WNW 06:53:10 10° SW visible
19 Feb ? 05:27:24 10° ENE 05:28:43 13° E 05:30:02 10° SE visible
19 Feb ? 06:56:16 10° NNW 06:58:21 23° WNW 07:00:26 10° SW visible
20 Feb ? 05:33:31 10° NE 05:35:09 16° E 05:36:48 10° SE visible
21 Feb ? 05:38:39 10° NE 05:40:29 18° E 05:42:19 10° SE visible
22 Feb ? 05:42:44 10° NE 05:44:42 20° E 05:46:38 10° SSE visible
23 Feb ? 05:45:46 10° NE 05:47:48 21° E 05:49:49 10° SSE visible
